Regional Weather Roundup
Issued by NWS

Home | Current Version | Previous Version | Graphics & Text | Print | Product List | Glossary On
Versions: 1 2 3 4 5 6 7 8 9 10 11 12 13 14 15 16 17 18 19 20 21 22 23 24 25 26 27 28 29 30 31 32 33 34 35 36 37 38 39 40 41 42 43 44 45 46 47 48 49 50
000
ASUS43 KIND 251159
RWRIN

WEATHER ROUNDUP FOR INDIANA
NATIONAL WEATHER SERVICE INDIANAPOLIS IN
800 AM EDT MON MAY 25 2015

NOTE: "FAIR" INDICATES FEW OR NO CLOUDS BELOW 12,000 FEET WITH NO
SIGNIFICANT WEATHER AND/OR OBSTRUCTIONS TO VISIBILITY.

* - STATION DOES NOT REPORT WEATHER SUCH AS PRECIPITATION OR FOG.

+ - STATION NOT QUALITY CONTROLLED BY THE NATIONAL WEATHER SERVICE.
    USE DATA WITH CAUTION...ESPECIALLY DEWPOINT AND RELATIVE
    HUMIDITY OBSERVATIONS.

INZ001>003-010>013-019-020-251300-
NORTHWEST INDIANA

CITY           SKY/WX    TMP DP  RH WIND       PRES   REMARKS
GARY /AIRPORT/ LGT RAIN  73  66  78 S14G25    29.88F
RENSSELAER +   CLOUDY    70  68  94 S15G22    29.93S

$$

LMZ046-743>745-251300-
SOUTHERN LAKE MICHIGAN

STATION/POSITION TIME  TEMP    WIND        PRES    WAVE
                       AIR SEA DIR/SP/G            HT
                 (UTC) (F)     (DEG/KT/KT) (MB)    (FT)
BURNS HARBOR     1100   71     190/ 11/ 17 1012.9R
MICHIGAN CITY    1100   72     160/ 14/ 20   N/A
5NW MICH CITY    1100   66 53  190/ 12/ 16   N/A     1

$$

INZ004-005-014>016-021>024-251300-
NORTH CENTRAL INDIANA

CITY           SKY/WX    TMP DP  RH WIND       PRES   REMARKS
ELKHART        CLOUDY    72  59  64 S9        29.95S
GOSHEN         CLOUDY    71  62  73 S20G25    29.96S
6HR MIN TEMP:  69; 6HR MAX TEMP:  71; 6HR PCP: TRACE;

SOUTH BEND     CLOUDY    73  63  70 S15       29.93S
6HR MIN TEMP:  72; 6HR MAX TEMP:  74; 6HR PCP: TRACE;


$$

INZ006>009-017-018-025>027-251300-
NORTHEAST INDIANA

CITY           SKY/WX    TMP DP  RH WIND       PRES   REMARKS
ANGOLA *+      SUNNY     72  61  68 SW10      29.99S
FORT WAYNE     LGT RAIN  69  63  81 S20G30    30.02R
6HR MIN TEMP:  69; 6HR MAX TEMP:  72; 6HR PCP:  0.01;


$$

INZ028-029-035-036-043>045-051>053-251300-
WEST CENTRAL INDIANA

CITY           SKY/WX    TMP DP  RH WIND       PRES   REMARKS
CRAWFORDSVL +  CLOUDY    67  60  78 S16G23    30.00R
6HR MIN TEMP:  67; 6HR MAX TEMP:  72;

GREENCASTLE +  CLOUDY    68  61  77 S9G17     30.02S
LAFAYETTE      CLOUDY    70  64  81 S14G22    29.96R
6HR MIN TEMP:  70; 6HR MAX TEMP:  73; 6HR PCP: TRACE;

TERRE HAUTE    CLOUDY    69  66  90 S14G23    30.00S
6HR MIN TEMP:  69; 6HR MAX TEMP:  75; 6HR PCP:  0.02;


$$

INZ030>032-037>040-046>048-054>057-064-065-251300-
CENTRAL INDIANA

CITY           SKY/WX    TMP DP  RH WIND       PRES   REMARKS
COLUMBUS       PTSUNNY   68  63  83 S12       30.07R
INDIANAPOLIS   CLOUDY    69  64  84 S17       30.01F
6HR MIN TEMP:  68; 6HR MAX TEMP:  74; 6HR PCP: TRACE;

-EAGLE CREEK   CLOUDY    69  65  86 S10G23    30.02S
6HR MIN TEMP:  69; 6HR MAX TEMP:  74; 6HR PCP:  0.01;

KOKOMO *+      CLOUDY    70  63  78 S20G26    30.00S
6HR MIN TEMP:  70; 6HR MAX TEMP:  72;

MT COMFORT *+  CLOUDY    68 N/A N/A S15       30.04F
SHELBYVILLE    CLOUDY    70  65  84 S9        30.05S
6HR MIN TEMP:  69; 6HR MAX TEMP:  75; 6HR PCP:  0.06;


$$

INZ033-034-041-042-049-050-058-059-251300-
EAST CENTRAL INDIANA

CITY           SKY/WX    TMP DP  RH WIND       PRES   REMARKS
MUNCIE         CLOUDY    70  63  78 S12G23    30.03F
6HR MIN TEMP:  70; 6HR MAX TEMP:  73; 6HR PCP: TRACE;


$$

INZ060-061-067>069-081>083-085>088-251300-
SOUTHWEST INDIANA

CITY           SKY/WX    TMP DP  RH WIND       PRES   REMARKS
EVANSVILLE     CLOUDY    68  65  90 S10       30.07R
6HR MIN TEMP:  68; 6HR MAX TEMP:  75; 6HR PCP:  0.39;

HUNTINGBURG *+ CLOUDY    66  63  88 S9G16     30.09S
6HR MIN TEMP:  66; 6HR MAX TEMP:  73; 6HR PCP:  0.25;


$$

INZ062-063-066-070>080-084-089>092-251300-
SOUTH CENTRAL AND SOUTHEAST INDIANA

CITY           SKY/WX    TMP DP  RH WIND       PRES   REMARKS
BLOOMINGTON    LGT RAIN  68  65  90 S14G23    30.05S
6HR MIN TEMP:  68; 6HR MAX TEMP:  74; 6HR PCP:  0.09;

MADISON *+     CLOUDY    68  61  77 SW15G25   30.15R
SEYMOUR +      CLOUDY    73  61  64 S22G28    30.09R

$$




USA.gov is the U.S. government's official web portal to all federal, state and local government web resources and services.